Regional Weather Roundup
Issued by NWS

Home | Current Version | Previous Version | Text Only | Print | Product List | Glossary Off
Versions: 1 2 3 4 5 6 7 8 9 10 11 12 13 14 15 16 17 18 19 20 21 22 23 24 25 26 27 28 29 30 31 32 33 34 35 36 37 38 39 40 41 42 43 44 45 46 47 48 49 50

000
ASUS43 KOAX 291510
RWRNE

WEATHER ROUNDUP FOR NEBRASKA
NATIONAL WEATHER SERVICE OMAHA NE
1000 AM CDT SAT AUG 29 2015

NOTES: SATELLITE DATA IS BEING USED TO AUGMENT CLOUD COVER ABOVE
       12000 FEET.
       "FAIR" INDICATES FEW OR NO CLOUDS BELOW 12,000 FEET WITH NO
       SIGNIFICANT WEATHER AND/OR OBSTRUCTIONS TO VISIBILITY.

  * THESE STATIONS DO NOT REPORT WEATHER SUCH AS RAIN...SNOW OR FOG.

NEZ001>004-019>022-054>056-291600-
NEBRASKA PANHANDLE

CITY           SKY/WX    TMP DP  RH WIND       PRES   REMARKS
SCOTTSBLUFF    SUNNY     63  50  62 E5        30.18S
ALLIANCE       SUNNY     67  51  56 SW3       30.17S
CHADRON        SUNNY     71  53  52 CALM      30.11S HAZE
KIMBALL        SUNNY     67  47  48 W5        30.23S
SIDNEY         SUNNY     70  48  45 W5        30.21F
$$

NEZ057>060-069>072-079>082-291600-
SOUTHWEST NEBRASKA

CITY           SKY/WX    TMP DP  RH WIND       PRES   REMARKS
NORTH PLATTE   SUNNY     66  61  84 W5        30.15S
IMPERIAL       SUNNY     68  56  65 W3        30.17S
LEXINGTON      SUNNY     67  64  92 W3        30.13S
MCCOOK         SUNNY     68  60  75 W6        30.14S
OGALLALA       SUNNY     64  58  81 CALM      30.17S
$$

NEZ005>010-023>029-035>040-094-291600-
NORTH CENTRAL NEBRASKA

CITY           SKY/WX    TMP DP  RH WIND       PRES   REMARKS
VALENTINE      PTSUNNY   64  60  87 SW6       30.09S
AINSWORTH      PTSUNNY   67  63  86 SW5       30.11R
BROKEN BOW     SUNNY     68  64  87 CALM      30.12S
O`NEILL        SUNNY     67  66  97 CALM      30.11R
ORD            SUNNY     64  61  90 CALM      30.11S
THEDFORD       SUNNY     70  64  81 W3        30.14S
$$

NEZ041-046>049-061>064-073>077-083>087-291600-
SOUTH CENTRAL NEBRASKA

CITY           SKY/WX    TMP DP  RH WIND       PRES   REMARKS
GRAND ISLAND   FOG       59  59 100 CALM      30.12F VSB 1/2
AURORA         CLOUDY    60  60 100 N5        30.11S
HASTINGS       CLOUDY    62  61  96 N6        30.12S FOG
HEBRON         CLOUDY    62  57  86 N7        30.09S
HOLDREGE       SUNNY     65  61  86 N3        30.13S
KEARNEY *      SUNNY     64  59  82 N5        30.13R
YORK           CLOUDY    59  59 100 N6        30.11R
$$

NEZ011>018-030>034-042>045-291600-
NORTHEAST NEBRASKA

CITY           SKY/WX    TMP DP  RH WIND       PRES   REMARKS
NORFOLK        CLOUDY    61  58  90 NW5       30.09F
ALBION         FOG       58  57  94 W3        30.11S VSB 1/4
BLAIR          CLOUDY    60  58  92 N5        30.07R
COLUMBUS *     CLOUDY    61  54  77 NW5       30.11R
FREMONT        CLOUDY    62  59  91 CALM      30.08S
TEKAMAH        CLOUDY    63  60  90 N6        30.07S
WAYNE          CLOUDY    60  58  93 CALM      30.10S
$$

NEZ050>053-065>068-078-088>093-291600-
SOUTHEAST NEBRASKA

CITY           SKY/WX    TMP DP  RH WIND       PRES   REMARKS
LINCOLN        CLOUDY    62  59  90 N10       30.09R
OMAHA EPPLEY   CLOUDY    62  60  93 N9        30.06S
BEATRICE       CLOUDY    63  61  95 N10       30.07R FOG
FALLS CITY     CLOUDY    65  63  93 N8        30.03R
NEBRASKA CITY  CLOUDY    62  62  99 N8        30.05S FOG
PLATTSMOUTH    CLOUDY    61  59  94 N6        30.06R FOG
$$

NEZ044-045-051>053-067-291600-
OMAHA AREA

CITY           SKY/WX    TMP DP  RH WIND       PRES   REMARKS
OMAHA EPPLEY   CLOUDY    62  60  93 N9        30.06S
BLAIR          CLOUDY    60  58  92 N5        30.07R
FREMONT        CLOUDY    62  59  91 CALM      30.08S
MILLARD        CLOUDY    62  59  90 CALM      30.06S
OFFUTT AFB     CLOUDY    62  60  93 NW7       30.05S FOG
PLATTSMOUTH    CLOUDY    61  59  94 N6        30.06R FOG
WAHOO          CLOUDY    61  60  94 N5        30.08S
$$



USA.gov is the U.S. government's official web portal to all federal, state and local government web resources and services.